[[{"header":{"parameterUnit":"m.s-1","parameterCategory":2,"la1":30.2992,"la2":30.254,"lo1":-89.0895,"lo2":-89.0443,"dy":0.0025,"dx":0.0025,"nx":19,"ny":19,"refTime":"2026-04-21T03:00:00:Z","depth":"0","parameterNumber":2,"parameterNumberName":"U-component_of_CURRENTS"},"data":[0,0,0,-0.1459,-0.146,-0.1523,-0.1523,-0.151,-0.1509,0,0,0,0,0,0,0,0,0,0,0,-0.1426,-0.1427,-0.1459,-0.1461,-0.1523,-0.1523,-0.151,-0.1509,0,0,0,0,0,0,0,0,0,0,0,-0.1426,-0.1427,-0.1427,-0.1461,-0.1523,-0.1523,-0.151,-0.1484,0,0,0,0,0,0,0,0,0,0,-0.1434,-0.1417,-0.1426,-0.1427,-0.1461,-0.1523,-0.1523,-0.1484,-0.1485,-0.1457,0,-0.1468,0,-0.1494,-0.1507,-0.1507,0,0,0,-0.1453,-0.1416,-0.1439,-0.1427,-0.1462,-0.1523,-0.1493,-0.1485,-0.1487,-0.1459,-0.1468,-0.1469,-0.1494,-0.1507,-0.1507,-0.1554,-0.1555,0,0,-0.1449,-0.143,-0.1438,-0.144,-0.1477,-0.1491,-0.1495,-0.1488,-0.1483,-0.1468,-0.1469,-0.1494,-0.1506,-0.1506,-0.1553,-0.1554,0,0,0,-0.1445,-0.1427,-0.1452,-0.144,-0.1462,-0.1493,-0.1497,-0.1483,-0.1493,-0.1469,-0.1494,-0.1506,-0.1506,-0.1552,-0.1553,-0.1647,0,0,0,-0.1442,-0.1425,-0.145,-0.1438,-0.1463,-0.1486,-0.1493,-0.1494,-0.1495,-0.1494,-0.1506,-0.1506,-0.1551,-0.1553,-0.1642,-0.1712,0,0,0,-0.1424,-0.1423,-0.1432,-0.1437,-0.147,-0.1488,-0.1498,-0.1495,-0.1509,-0.1507,-0.1505,-0.1551,-0.1553,-0.1639,-0.1704,-0.1773,0,0,0,-0.1399,-0.1423,-0.1431,-0.1473,-0.147,-0.1534,-0.1498,-0.1531,-0.1535,-0.1506,-0.1552,-0.1553,-0.1637,-0.1699,-0.1768,-0.1609,-0.1619,0,0,-0.1421,-0.1425,-0.1455,-0.1465,-0.1531,-0.1525,-0.1602,-0.1585,-0.1553,-0.1543,-0.1545,-0.1644,-0.1703,-0.1772,-0.1716,-0.1722,0,0,0,-0.1459,-0.1472,-0.1497,-0.1536,-0.1579,-0.1638,-0.1624,-0.1656,-0.1676,-0.1566,-0.1655,-0.1691,-0.173,-0.1624,-0.163,-0.1589,-0.1562,-0.1562,-0.1562,-0.1437,-0.1484,-0.1529,-0.1585,-0.1633,-0.1709,-0.1785,-0.1817,-0.1735,-0.178,-0.1774,-0.1904,-0.1791,-0.1794,-0.1755,-0.1767,-0.1767,-0.1768,-0.1768,-0.1461,-0.1481,-0.155,-0.1607,-0.1686,-0.174,-0.1893,-0.1908,-0.201,-0.1917,-0.1948,-0.1737,-0.1806,-0.1761,-0.1774,-0.1773,-0.1772,-0.1772,-0.1771,-0.1431,-0.1444,-0.149,-0.1568,-0.1661,-0.1753,-0.191,-0.2023,-0.2082,-0.2153,-0.1971,-0.1967,-0.1921,-0.2114,-0.2115,-0.2115,-0.2116,-0.2116,-0.2117,-0.136,-0.1412,-0.1426,-0.1525,-0.1557,-0.1679,-0.1917,-0.202,-0.2085,-0.2089,-0.2086,-0.1956,-0.201,-0.1989,-0.2126,-0.2125,-0.2123,-0.2123,-0.2122,-0.1299,-0.1313,-0.1333,-0.1359,-0.1458,-0.1522,-0.1784,-0.194,-0.2071,-0.2063,-0.198,-0.2061,-0.202,-0.2011,-0.199,-0.212,-0.212,-0.212,-0.212,-0.1222,-0.1244,-0.1223,-0.1235,-0.1309,-0.1441,-0.1521,-0.1697,-0.1855,-0.1879,-0.1963,-0.1827,-0.1829,-0.1772,-0.1768,-0.174,-0.1804,-0.1804,-0.1804,-0.1157,-0.1167,-0.1113,-0.1141,-0.1208,-0.1306,-0.1314,-0.1405,-0.1636,-0.1796,-0.1954,-0.1968,-0.1773,-0.1779,-0.1684,-0.1682,-0.1633,0,0]},{"header":{"parameterUnit":"m.s-1","parameterCategory":2,"la1":30.2992,"la2":30.254,"lo1":-89.0895,"lo2":-89.0443,"dy":0.0025,"dx":0.0025,"nx":19,"ny":19,"refTime":"2026-04-21T03:00:00:Z","depth":"0","parameterNumber":3,"parameterNumberName":"V-component_of_CURRENTS"},"data":[0,0,0,0.0089,0.0091,0.0176,0.0177,0.0295,0.0296,0,0,0,0,0,0,0,0,0,0,0,0.0056,0.0057,0.0089,0.0091,0.0176,0.0177,0.0295,0.0296,0,0,0,0,0,0,0,0,0,0,0,0.0056,0.0056,0.0057,0.0091,0.0176,0.0177,0.0294,0.023,0,0,0,0,0,0,0,0,0,0,0.0147,0.0105,0.0056,0.0057,0.0091,0.0176,0.0177,0.0227,0.0234,0.0255,0,0.026,0,0.0278,0.0303,0.0303,0,0,0,0.0101,0.0099,0.0127,0.0057,0.0092,0.0176,0.0141,0.0231,0.0239,0.0265,0.0262,0.0267,0.028,0.0304,0.0304,0.0348,0.0348,0,0,0.0096,0.0071,0.0122,0.0132,0.0104,0.0138,0.0143,0.0236,0.0237,0.0262,0.0269,0.0282,0.0304,0.0305,0.0348,0.0348,0,0,0,0.0076,0.0067,0.0094,0.0127,0.0141,0.014,0.0146,0.0233,0.0243,0.0271,0.0284,0.0305,0.0306,0.0348,0.0348,0.0249,0,0,0,0.0074,0.0055,0.0091,0.0077,0.0138,0.0185,0.0141,0.0236,0.0247,0.0283,0.0305,0.0307,0.0349,0.0348,0.0253,0.0187,0,0,0,0.0054,0.0053,0.0061,0.0075,0.0109,0.0184,0.02,0.0239,0.0255,0.0303,0.0308,0.0349,0.0348,0.0256,0.0194,0.0203,0,0,0,0.0029,0.0009,0.006,0.0039,0.0108,0.0125,0.0199,0.0228,0.0262,0.0306,0.0349,0.0348,0.0257,0.0198,0.0206,0.0327,0.0323,0,0,-0.0016,0.0003,-0.0011,0.0036,0.0018,0.0115,0.0108,0.0191,0.0259,0.0322,0.0323,0.0252,0.0194,0.0204,0.0283,0.0281,0,0,0,-0.0039,-0.0055,-0.005,-0.0045,-0.0004,0.0019,0.0113,0.016,0.0222,0.0276,0.0264,0.0231,0.024,0.032,0.0318,0.0573,0.0344,0.0345,0.0345,-0.0135,-0.0118,-0.0156,-0.0132,-0.0118,-0.0037,-0.0004,0.0078,0.0162,0.0176,0.016,0.0108,0.0191,0.0191,0.0452,0.0184,0.0184,0.0184,0.0183,-0.0232,-0.0259,-0.0247,-0.0275,-0.0234,-0.022,-0.0122,-0.0051,0.0025,0.0084,0.0101,0.0223,0.0183,0.0463,0.0177,0.0178,0.0179,0.018,0.018,-0.0299,-0.0313,-0.0326,-0.0376,-0.0397,-0.0337,-0.0352,-0.0237,-0.0086,-0.0075,0.0084,0.0088,0.0329,-0.004,-0.0041,-0.0041,-0.0041,-0.0041,-0.0041,-0.0354,-0.0374,-0.044,-0.0484,-0.053,-0.0559,-0.0477,-0.0392,-0.0164,-0.0023,-0.002,0.0354,0.0041,0.0045,-0.0046,-0.0045,-0.0044,-0.0044,-0.0044,-0.0428,-0.0433,-0.0546,-0.061,-0.0734,-0.0799,-0.0685,-0.0391,-0.0252,-0.0077,0.0395,0.0042,0.0095,0.01,0.0107,0.0037,0.0037,0.0037,0.0037,-0.0471,-0.0485,-0.0649,-0.079,-0.0926,-0.0925,-0.074,-0.0326,0.0246,0.0529,0.057,0.0682,0.0667,0.076,0.0751,0.0774,0.0875,0.0877,0.0878,-0.0524,-0.0568,-0.0703,-0.0847,-0.1025,-0.1038,-0.0766,-0.01,0.0682,0.0934,0.0898,0.0863,0.1047,0.1004,0.1166,0.1132,0.1175,0,0]}],[{"header":{"parameterUnit":"m.s-1","parameterCategory":2,"la1":30.2992,"la2":30.254,"lo1":-89.0895,"lo2":-89.0443,"dy":0.0025,"dx":0.0025,"nx":19,"ny":19,"refTime":"2026-04-21T03:00:00:Z","depth":"2","parameterNumber":2,"parameterNumberName":"U-component_of_CURRENTS"},"data":[0,0,0,-0.1415,-0.1416,-0.148,-0.148,-0.1467,-0.1467,0,0,0,0,0,0,0,0,0,0,0,-0.1382,-0.1382,-0.1415,-0.1416,-0.148,-0.148,-0.1467,-0.1467,0,0,0,0,0,0,0,0,0,0,0,-0.1382,-0.1382,-0.1383,-0.1417,-0.148,-0.148,-0.1467,-0.1441,0,0,0,0,0,0,0,0,0,0,-0.139,-0.1373,-0.1382,-0.1383,-0.1417,-0.148,-0.148,-0.144,-0.1442,-0.1414,0,-0.1425,0,-0.1452,-0.1464,-0.1464,0,0,0,-0.1408,-0.1372,-0.1395,-0.1383,-0.1418,-0.148,-0.1449,-0.1442,-0.1444,-0.1416,-0.1426,-0.1426,-0.1452,-0.1464,-0.1464,-0.1512,-0.1513,0,0,-0.1405,-0.1385,-0.1394,-0.1397,-0.1435,-0.1447,-0.1451,-0.1444,-0.144,-0.1426,-0.1427,-0.1451,-0.1464,-0.1464,-0.1511,-0.1512,0,0,0,-0.14,-0.1382,-0.1408,-0.1396,-0.1419,-0.1449,-0.1454,-0.144,-0.1451,-0.1427,-0.1451,-0.1464,-0.1463,-0.151,-0.1512,-0.1608,0,0,0,-0.1398,-0.1381,-0.1406,-0.1394,-0.142,-0.1443,-0.1449,-0.1451,-0.1452,-0.1451,-0.1464,-0.1463,-0.151,-0.1511,-0.1603,-0.1675,0,0,0,-0.1379,-0.1379,-0.1388,-0.1393,-0.1427,-0.1445,-0.1455,-0.1452,-0.1467,-0.1464,-0.1463,-0.1509,-0.1511,-0.1599,-0.1667,-0.1733,0,0,0,-0.1354,-0.1379,-0.1387,-0.1429,-0.1426,-0.1492,-0.1455,-0.1489,-0.1494,-0.1464,-0.151,-0.1512,-0.1598,-0.1662,-0.1728,-0.1549,-0.1557,0,0,-0.1377,-0.1381,-0.1411,-0.1421,-0.149,-0.1483,-0.1561,-0.1544,-0.1511,-0.1501,-0.1503,-0.1605,-0.1666,-0.1732,-0.1656,-0.1661,0,0,0,-0.1414,-0.1429,-0.1454,-0.1494,-0.1538,-0.16,-0.1586,-0.1616,-0.1637,-0.1525,-0.1616,-0.1653,-0.169,-0.1571,-0.1576,-0.152,-0.152,-0.152,-0.152,-0.1394,-0.1441,-0.1489,-0.1546,-0.1595,-0.1672,-0.1749,-0.178,-0.1697,-0.1742,-0.1738,-0.1868,-0.1741,-0.1743,-0.1729,-0.1729,-0.173,-0.173,-0.173,-0.1419,-0.1441,-0.1512,-0.1571,-0.1652,-0.171,-0.1862,-0.1876,-0.1975,-0.1882,-0.1911,-0.1687,-0.1753,-0.1738,-0.1737,-0.1736,-0.1735,-0.1734,-0.1734,-0.139,-0.1404,-0.1452,-0.1534,-0.1632,-0.1727,-0.1886,-0.1998,-0.2051,-0.2121,-0.1922,-0.1917,-0.1933,-0.208,-0.2081,-0.2081,-0.2082,-0.2082,-0.2083,-0.132,-0.1374,-0.139,-0.1495,-0.1531,-0.166,-0.1899,-0.1996,-0.2044,-0.2041,-0.2038,-0.1986,-0.1974,-0.1954,-0.2093,-0.2091,-0.209,-0.2089,-0.2088,-0.1259,-0.1274,-0.1298,-0.1329,-0.1438,-0.1516,-0.1769,-0.1902,-0.2025,-0.2001,-0.2003,-0.2002,-0.1958,-0.1949,-0.1927,-0.2052,-0.2052,-0.2052,-0.2052,-0.1183,-0.1205,-0.1189,-0.1209,-0.1294,-0.144,-0.1496,-0.159,-0.1742,-0.177,-0.1782,-0.1634,-0.1641,-0.1571,-0.1571,-0.1539,-0.1563,-0.1562,-0.1561,-0.1118,-0.1129,-0.108,-0.1114,-0.1194,-0.1314,-0.1281,-0.1206,-0.132,-0.1545,-0.1721,-0.2015,-0.1821,-0.1823,-0.1731,-0.1726,-0.1679,0,0]},{"header":{"parameterUnit":"m.s-1","parameterCategory":2,"la1":30.2992,"la2":30.254,"lo1":-89.0895,"lo2":-89.0443,"dy":0.0025,"dx":0.0025,"nx":19,"ny":19,"refTime":"2026-04-21T03:00:00:Z","depth":"2","parameterNumber":3,"parameterNumberName":"V-component_of_CURRENTS"},"data":[0,0,0,0.0028,0.003,0.0118,0.0119,0.0239,0.024,0,0,0,0,0,0,0,0,0,0,0,-0.0005,-0.0005,0.0028,0.003,0.0118,0.0119,0.0239,0.024,0,0,0,0,0,0,0,0,0,0,0,-0.0005,-0.0005,-0.0004,0.003,0.0118,0.0119,0.0238,0.0172,0,0,0,0,0,0,0,0,0,0,0.0087,0.0045,-0.0005,-0.0004,0.0031,0.0118,0.0119,0.0169,0.0176,0.0198,0,0.0204,0,0.0223,0.0247,0.0247,0,0,0,0.004,0.0038,0.0068,-0.0004,0.0031,0.0118,0.0081,0.0173,0.0182,0.0208,0.0206,0.0211,0.0225,0.0248,0.0248,0.0301,0.0301,0,0,0.0035,0.0009,0.0062,0.0073,0.0046,0.0078,0.0084,0.0178,0.018,0.0207,0.0214,0.0226,0.0249,0.0249,0.0301,0.0301,0,0,0,0.0014,0.0006,0.0033,0.0068,0.0082,0.0081,0.0087,0.0176,0.0186,0.0215,0.0228,0.0249,0.0251,0.0301,0.0301,0.0203,0,0,0,0.0012,-0.0007,0.003,0.0016,0.008,0.0127,0.0082,0.0179,0.0191,0.0227,0.0249,0.0252,0.0302,0.0301,0.0207,0.0141,0,0,0,-0.0007,-0.0009,-0.0,0.0014,0.0049,0.0126,0.0142,0.0182,0.0198,0.0248,0.0252,0.0302,0.0301,0.021,0.0147,0.0162,0,0,0,-0.0033,-0.0052,-0.0001,-0.0021,0.0048,0.0069,0.0142,0.0172,0.0207,0.025,0.0302,0.0301,0.021,0.0151,0.0165,0.0272,0.0268,0,0,-0.0078,-0.0058,-0.0072,-0.0024,-0.0039,0.0059,0.0056,0.0139,0.0208,0.0274,0.0275,0.0206,0.0147,0.0163,0.0239,0.0236,0,0,0,-0.0101,-0.0116,-0.0109,-0.0103,-0.0059,-0.0031,0.0064,0.0112,0.0177,0.0226,0.0221,0.0188,0.0201,0.0272,0.0269,0.0298,0.0298,0.0298,0.0298,-0.0195,-0.0177,-0.0213,-0.0187,-0.0169,-0.0084,-0.0047,0.0038,0.0121,0.0137,0.012,0.0077,0.0151,0.0151,0.0149,0.0148,0.0148,0.0147,0.0147,-0.0292,-0.0317,-0.0303,-0.0328,-0.0282,-0.0263,-0.0159,-0.0087,-0.0006,0.0051,0.007,0.0179,0.0142,0.014,0.0141,0.0142,0.0143,0.0144,0.0144,-0.0358,-0.037,-0.0382,-0.0428,-0.0445,-0.0379,-0.0388,-0.0271,-0.0115,-0.0102,0.005,0.0053,0.0024,-0.0065,-0.0066,-0.0066,-0.0066,-0.0066,-0.0066,-0.0413,-0.0431,-0.0496,-0.0536,-0.0581,-0.0604,-0.0515,-0.0421,-0.0194,-0.0057,-0.0054,0.0006,0.0013,0.0014,-0.007,-0.007,-0.0069,-0.0069,-0.0068,-0.0486,-0.049,-0.0603,-0.0665,-0.0785,-0.0836,-0.072,-0.0419,-0.0279,-0.0103,0.0006,0.0006,0.0057,0.0062,0.0066,0.0001,0.0001,0.0001,0.0001,-0.053,-0.0543,-0.0706,-0.0847,-0.0979,-0.096,-0.0782,-0.042,-0.0074,0.0054,0.0051,0.011,0.0108,0.0165,0.0168,0.0176,0.0137,0.0137,0.0137,-0.0583,-0.0627,-0.0761,-0.0904,-0.1079,-0.1063,-0.0816,-0.0323,0.0086,0.0136,0.0005,0.0023,0.0107,0.0103,0.0194,0.0197,0.0211,0,0]}],[{"header":{"parameterUnit":"m.s-1","parameterCategory":2,"la1":30.2992,"la2":30.254,"lo1":-89.0895,"lo2":-89.0443,"dy":0.0025,"dx":0.0025,"nx":19,"ny":19,"refTime":"2026-04-21T03:00:00:Z","depth":"4","parameterNumber":2,"parameterNumberName":"U-component_of_CURRENTS"},"data":[0,0,0,-0.0846,-0.0848,-0.0938,-0.0939,-0.0947,-0.0947,0,0,0,0,0,0,0,0,0,0,0,-0.0811,-0.0812,-0.0846,-0.0849,-0.0938,-0.0939,-0.0947,-0.0947,0,0,0,0,0,0,0,0,0,0,0,-0.0811,-0.0812,-0.0813,-0.0849,-0.0938,-0.0939,-0.0947,-0.0904,0,0,0,0,0,0,0,0,0,0,-0.0829,-0.0816,-0.0812,-0.0813,-0.0849,-0.0938,-0.0939,-0.0903,-0.0906,-0.0878,0,-0.09,0,-0.0926,-0.0945,-0.0945,0,0,0,-0.0841,-0.0813,-0.0838,-0.0813,-0.085,-0.0938,-0.0896,-0.0906,-0.0909,-0.0882,-0.09,-0.0901,-0.0926,-0.0945,-0.0945,-0.0945,-0.0945,0,0,-0.0836,-0.0823,-0.0836,-0.0841,-0.0882,-0.0893,-0.0899,-0.0909,-0.0913,-0.09,-0.0902,-0.0926,-0.0945,-0.0945,-0.0945,-0.0945,0,0,0,-0.0827,-0.0819,-0.0846,-0.084,-0.0867,-0.0896,-0.0902,-0.0913,-0.0923,-0.0903,-0.0926,-0.0945,-0.0945,-0.0945,-0.0945,-0.1038,0,0,0,-0.0824,-0.0814,-0.0844,-0.0836,-0.0867,-0.0906,-0.0905,-0.0922,-0.0925,-0.0926,-0.0945,-0.0945,-0.0944,-0.0945,-0.1035,-0.1089,0,0,0,-0.0806,-0.0812,-0.0826,-0.0835,-0.0879,-0.0907,-0.0918,-0.0924,-0.0938,-0.0945,-0.0944,-0.0944,-0.0945,-0.1032,-0.1083,-0.1151,0,0,0,-0.0783,-0.0813,-0.0826,-0.0871,-0.0878,-0.0939,-0.0919,-0.0959,-0.0971,-0.0945,-0.0944,-0.0945,-0.1032,-0.108,-0.1147,-0.1003,0,0,0,-0.0808,-0.0816,-0.0844,-0.0859,-0.093,-0.0925,-0.0984,-0.0989,-0.096,-0.0931,-0.0933,-0.1036,-0.1083,-0.115,-0.1021,0,0,0,0,-0.0844,-0.0866,-0.0889,-0.0938,-0.0975,-0.1021,-0.1024,-0.101,-0.1013,-0.097,-0.1016,-0.1043,-0.1083,-0.0985,-0.0946,-0.0946,-0.0946,-0.0946,-0.0946,-0.0833,-0.0881,-0.0941,-0.1002,-0.1044,-0.1082,-0.1101,-0.1079,-0.1049,-0.1057,-0.1104,-0.1198,-0.1095,-0.1078,-0.1078,-0.1078,-0.1079,-0.1079,-0.1079,-0.0868,-0.0902,-0.0983,-0.1057,-0.1114,-0.1161,-0.1184,-0.1174,-0.1205,-0.1149,-0.1184,-0.107,-0.1088,-0.1086,-0.1085,-0.1084,-0.1083,-0.1083,-0.1082,-0.0841,-0.0869,-0.0932,-0.1045,-0.1153,-0.1224,-0.1294,-0.131,-0.1301,-0.1343,-0.1258,-0.1269,-0.128,-0.1384,-0.1385,-0.1386,-0.1386,-0.1386,-0.1387,-0.0773,-0.0846,-0.0901,-0.104,-0.1126,-0.1248,-0.1366,-0.1399,-0.1439,-0.1356,-0.1401,-0.1302,-0.1292,-0.1297,-0.1395,-0.1394,-0.1393,-0.1392,-0.1391,-0.0732,-0.0752,-0.0824,-0.0904,-0.111,-0.1213,-0.1357,-0.1417,-0.1453,-0.1451,-0.1345,-0.1345,-0.1305,-0.1296,-0.1299,-0.1402,-0.1401,-0.1399,0,-0.0671,-0.0698,-0.076,-0.0869,-0.1013,-0.1188,-0.1234,-0.1319,-0.1357,-0.1295,-0.1463,-0.1341,-0.1339,-0.1288,-0.1278,-0.1278,0,0,0,-0.0635,-0.0652,-0.0674,-0.0792,-0.0974,-0.1115,-0.1243,-0.123,-0.1332,-0.1365,-0.1363,-0.1373,-0.142,-0.142,-0.1359,-0.1347,-0.1353,0,0]},{"header":{"parameterUnit":"m.s-1","parameterCategory":2,"la1":30.2992,"la2":30.254,"lo1":-89.0895,"lo2":-89.0443,"dy":0.0025,"dx":0.0025,"nx":19,"ny":19,"refTime":"2026-04-21T03:00:00:Z","depth":"4","parameterNumber":3,"parameterNumberName":"V-component_of_CURRENTS"},"data":[0,0,0,-0.0048,-0.0045,0.0086,0.0087,0.0258,0.0259,0,0,0,0,0,0,0,0,0,0,0,-0.0093,-0.0092,-0.0048,-0.0045,0.0086,0.0087,0.0257,0.0259,0,0,0,0,0,0,0,0,0,0,0,-0.0093,-0.0092,-0.0091,-0.0045,0.0086,0.0087,0.0257,0.0161,0,0,0,0,0,0,0,0,0,0,0.0034,-0.0022,-0.0092,-0.0091,-0.0044,0.0086,0.0087,0.0156,0.0167,0.0194,0,0.0207,0,0.0231,0.0269,0.0269,0,0,0,-0.003,-0.0031,0.0011,-0.0091,-0.0043,0.0086,0.0031,0.0162,0.0174,0.0207,0.0209,0.0216,0.0233,0.027,0.0271,0.0435,0.0436,0,0,-0.0037,-0.007,0.0003,0.0018,-0.0018,0.0027,0.0035,0.017,0.0174,0.021,0.022,0.0236,0.0271,0.0272,0.0434,0.0435,0,0,0,-0.0068,-0.0076,-0.0037,0.0011,0.0031,0.003,0.004,0.0168,0.0183,0.0222,0.0238,0.0272,0.0274,0.0434,0.0435,0.0401,0,0,0,-0.0072,-0.0095,-0.004,-0.0059,0.0028,0.0098,0.0035,0.0174,0.019,0.0237,0.0272,0.0275,0.0433,0.0434,0.04,0.0354,0,0,0,-0.0097,-0.0098,-0.0084,-0.0061,-0.001,0.0097,0.012,0.0178,0.0199,0.027,0.0275,0.0432,0.0434,0.0399,0.0354,0.0335,0,0,0,-0.0133,-0.0119,-0.0085,-0.0059,-0.0012,0.009,0.012,0.0198,0.0258,0.0273,0.0433,0.0434,0.0399,0.0355,0.0335,0.0235,0,0,0,-0.0136,-0.0121,-0.0103,-0.0069,-0.0001,0.0073,0.0166,0.0248,0.0293,0.039,0.0394,0.04,0.0354,0.0335,0.0332,0,0,0,0,-0.0116,-0.0109,-0.0079,-0.0034,0.0051,0.013,0.0231,0.0275,0.0363,0.0333,0.0443,0.0415,0.0403,0.035,0.0442,0.0442,0.0442,0.0442,0.0442,-0.018,-0.0127,-0.0096,-0.0016,0.0055,0.0185,0.0248,0.0332,0.0389,0.0422,0.042,0.0423,0.0372,0.0476,0.0476,0.0476,0.0476,0.0476,0.0475,-0.0206,-0.0191,-0.0119,-0.0075,0.0027,0.0114,0.0265,0.0314,0.0395,0.0434,0.0426,0.036,0.0473,0.0474,0.0474,0.0474,0.0474,0.0475,0.0475,-0.0262,-0.0245,-0.022,-0.0162,-0.0085,0.0051,0.0124,0.0245,0.0332,0.0347,0.0302,0.0396,0.0359,0.0354,0.0354,0.0353,0.0353,0.0353,0.0353,-0.0335,-0.0299,-0.0313,-0.0247,-0.0227,-0.0137,0.0037,0.0093,0.0213,0.0237,0.0334,0.0382,0.0386,0.0353,0.0349,0.035,0.035,0.035,0.0351,-0.0385,-0.0384,-0.0408,-0.0411,-0.0361,-0.0287,-0.0129,-0.0002,0.0038,0.0054,0.0185,0.0195,0.0187,0.0195,0.0155,0.0092,0.009,0.0089,0,-0.0434,-0.043,-0.0481,-0.051,-0.0487,-0.0366,-0.0282,-0.0178,-0.006,-0.006,0.0007,0.015,0.0159,0.0147,0.0152,0.0103,0,0,0,-0.0467,-0.0477,-0.0529,-0.0553,-0.0543,-0.0383,-0.0246,-0.0218,-0.0061,-0.006,0.0054,0.0063,0.0181,0.0337,0.0347,0.0352,0.0299,0,0]}]]